Wind_Speed
24 25 26 26 26 25 26 26 26 26 25 23 21 19 17 16 17 16 14 12 10 9 8 8 9 10 11 11 12 13 14 15 15 15 16 17 19 21 21 22 23 23 22 22 21 21 23 23 24 23 23 23 25 26 26 27 28 29 29 29 28 28 28 28 28 26 24 24 25 26 26 26 27 27 28 29 30 30 30 30 31 32 32 33 33
21 23 24 25 26 25 25 25 23 23 21 19 18 17 16 17 17 15 14 12 10 9 8 8 9 10 10 12 13 14 14 14 15 16 18 19 20 21 22 22 23 24 24 23 22 21 22 22 22 22 23 24 25 27 28 28 29 31 32 32 32 31 31 30 30 28 26 26 26 26 26 27 28 29 30 30 31 32 33 34 34 34 33 33 33
19 20 21 22 23 23 22 20 18 18 17 16 16 16 17 17 17 15 15 13 11 9 8 9 10 10 11 13 14 15 15 15 16 18 20 21 22 23 24 24 25 26 26 26 24 23 23 23 23 22 23 24 26 28 30 30 31 32 34 35 35 34 34 34 32 31 30 29 27 27 28 29 30 31 32 32 32 33 36 37 36 36 36 36 36
17 18 19 20 20 19 17 16 16 15 15 16 16 17 18 18 17 16 15 13 11 10 9 10 11 11 12 14 15 16 16 16 17 19 21 23 25 26 27 27 27 27 28 28 27 26 25 25 25 25 25 25 26 28 30 32 33 34 35 36 37 37 37 36 35 33 33 32 31 31 31 31 32 33 34 34 35 37 39 39 38 38 39 40 41
17 17 18 19 18 16 15 15 15 16 16 17 17 18 18 18 17 16 15 13 12 11 10 11 12 12 13 14 16 17 17 17 18 21 24 26 28 29 30 29 29 29 29 29 28 27 27 27 28 27 27 28 28 29 30 32 34 36 37 37 38 39 39 38 36 34 33 33 33 34 34 34 33 35 36 36 37 39 40 40 40 41 42 43 43
18 18 19 19 17 16 15 15 16 17 17 18 18 19 19 18 18 17 15 14 13 12 12 12 13 14 15 16 17 17 17 18 20 23 26 29 30 32 33 32 32 31 31 31 29 28 28 28 29 30 30 30 31 31 31 32 34 37 38 38 39 40 41 40 38 35 33 32 33 34 35 35 34 35 37 37 37 38 39 40 41 43 44 43 42
19 19 20 20 18 17 16 16 17 18 18 19 19 19 19 19 18 18 16 15 14 13 12 13 14 16 16 17 18 18 18 19 21 24 27 30 32 33 34 35 34 33 32 32 31 30 29 30 32 33 32 32 32 32 31 32 33 36 37 38 39 40 41 41 40 37 35 33 32 33 34 34 34 35 36 36 37 39 40 41 41 43 44 42 38
21 19 20 21 20 19 18 19 20 19 20 20 20 19 19 19 19 19 17 15 14 13 13 14 16 17 18 18 19 19 19 19 22 24 27 30 32 34 35 36 36 35 34 33 33 32 32 33 34 35 35 34 33 31 31 31 32 34 37 38 39 40 41 42 41 40 38 35 33 33 32 32 34 35 36 38 40 41 42 42 42 42 42 38 35
21 19 20 20 21 22 23 22 22 22 21 21 20 19 19 20 20 19 17 16 15 14 14 15 17 18 18 18 18 18 19 20 22 25 27 30 33 34 36 37 37 36 34 34 34 33 33 34 35 35 35 34 32 30 30 31 32 34 38 40 41 41 41 42 41 41 40 37 35 32 29 30 34 36 38 40 42 43 43 43 43 43 42 39 37
21 18 18 20 22 25 26 26 25 25 23 22 21 21 21 22 22 20 18 17 15 15 15 16 17 18 18 18 18 18 20 22 24 25 28 31 33 35 37 37 37 36 35 35 35 34 34 35 35 35 35 34 33 32 32 32 34 38 41 44 45 45 44 43 42 41 41 40 37 30 26 33 39 38 38 40 42 43 44 45 45 44 43 41 40
22 18 18 21 23 25 28 28 27 26 25 24 23 23 24 24 23 21 19 17 16 16 16 16 18 18 18 17 18 20 22 23 25 27 29 32 34 36 36 36 36 36 36 36 35 34 34 35 35 34 34 35 34 35 35 36 38 41 44 46 48 49 49 46 43 41 39 38 34 28 30 40 45 41 39 40 41 43 45 46 46 45 44 42 42
23 20 20 22 24 26 28 28 27 26 26 25 25 25 26 25 23 21 19 18 17 17 16 16 17 17 17 17 19 20 21 23 25 28 30 33 35 37 36 35 35 35 35 35 34 34 34 35 36 36 36 36 37 38 39 40 42 44 44 45 49 52 49 42 37 33 31 30 32 31 34 41 42 40 42 42 42 44 46 47 47 45 43 43 43
26 24 23 24 25 27 29 30 28 26 25 26 27 28 27 26 23 21 19 19 18 17 15 15 16 15 16 16 17 18 20 22 25 28 31 34 37 37 34 32 33 33 33 33 33 34 35 36 37 37 38 39 40 41 43 45 46 46 45 45 46 45 39 35 32 28 27 32 37 36 36 39 41 42 45 45 44 46 47 47 46 45 44 44 43
30 28 26 25 27 28 29 30 29 27 27 28 30 29 28 26 23 21 21 20 18 16 15 15 15 15 16 17 18 18 20 23 26 28 31 34 36 34 30 29 31 32 32 33 34 35 37 38 38 38 38 40 41 44 46 47 48 50 48 42 37 35 36 37 34 29 29 37 42 40 39 42 43 44 45 46 46 46 46 45 44 44 44 44 43
32 32 30 28 28 29 29 29 29 28 29 30 31 30 28 26 24 23 21 19 17 16 16 15 15 17 18 20 20 20 21 24 27 30 33 35 36 33 30 30 33 34 35 36 36 38 39 39 38 38 38 40 42 44 46 48 51 52 46 35 32 37 41 37 31 31 37 44 48 47 46 46 44 44 45 46 45 44 44 43 43 43 43 43 42
34 34 33 31 30 30 30 30 30 30 31 32 32 31 29 27 25 23 21 19 18 17 16 16 17 19 21 21 22 22 24 26 30 32 35 38 38 36 34 34 35 36 37 38 39 41 41 41 40 39 39 40 42 42 44 48 48 44 41 37 36 40 38 32 33 41 47 50 51 51 49 47 47 47 47 46 44 43 43 43 43 43 42 42 42
35 35 36 35 33 32 31 31 31 31 32 33 32 31 29 27 25 24 21 19 18 17 17 18 19 20 21 22 23 24 26 29 32 33 36 39 40 39 38 38 38 39 40 41 42 42 43 42 41 40 40 41 42 42 44 46 41 38 43 46 44 42 40 41 47 51 51 51 52 52 50 48 49 49 47 45 43 43 44 43 42 43 42 42 42
36 36 37 37 34 33 33 33 32 32 33 34 32 31 29 27 25 23 21 19 18 18 18 19 20 21 21 23 25 26 28 30 33 34 36 39 41 41 41 40 40 41 41 42 43 43 43 42 41 41 41 41 42 42 43 43 40 39 44 46 44 45 48 51 53 53 53 54 54 52 50 50 49 48 46 44 44 44 44 42 42 42 42 42 42
37 37 37 37 36 36 35 35 34 33 33 33 32 30 28 27 25 24 22 20 19 19 20 21 22 22 22 24 27 28 30 33 35 36 38 41 43 43 43 41 41 42 43 43 43 43 42 41 41 41 41 41 41 41 41 41 42 43 44 45 45 48 51 52 54 54 55 55 53 52 51 50 49 47 46 45 45 44 43 42 42 42 42 43 44
37 37 38 39 39 38 38 37 36 33 32 31 29 28 28 27 26 24 23 21 20 21 22 23 24 24 24 26 29 30 32 36 38 38 40 42 44 45 44 41 40 42 43 43 43 42 41 40 40 40 40 41 41 41 41 41 42 43 44 46 47 49 51 53 54 55 55 55 54 53 51 50 49 48 47 45 44 44 43 42 42 43 44 45 46
39 40 41 41 41 40 40 38 36 33 31 30 29 29 29 27 26 25 24 23 22 23 24 25 25 26 26 28 30 32 34 37 39 41 43 44 45 47 45 41 40 42 43 42 41 40 39 39 39 40 40 41 42 42 42 42 42 43 45 47 48 50 52 54 55 56 56 55 54 53 52 51 50 48 46 45 44 43 43 43 44 45 45 45 44
43 43 44 44 43 42 41 40 38 35 32 32 33 32 30 29 28 28 27 25 25 26 27 27 28 28 28 30 31 33 36 39 40 43 44 45 47 48 45 40 39 42 42 41 40 39 38 39 39 39 40 41 42 43 43 43 44 45 46 47 49 50 52 53 54 54 54 53 53 53 52 51 49 47 45 44 44 44 45 45 45 45 43 42 40
48 48 47 46 45 44 42 42 41 39 36 36 37 36 34 32 32 32 30 29 29 30 30 30 31 30 31 31 32 35 38 40 42 44 45 46 48 46 42 39 40 42 41 40 39 38 38 39 39 39 40 42 43 44 44 45 46 46 47 48 49 49 50 51 52 52 52 52 52 51 49 47 46 45 45 45 45 45 45 45 44 42 40 39 38
53 51 49 45 44 45 45 45 46 43 41 40 41 40 38 36 36 36 34 33 33 34 34 34 34 33 33 33 33 36 39 41 44 46 47 47 46 44 41 41 41 40 39 38 38 39 38 38 39 40 41 42 44 45 45 46 46 46 46 47 48 48 49 49 50 50 50 50 48 46 46 45 45 46 46 45 44 43 43 42 41 40 39 38 38
57 56 52 47 45 45 46 47 48 47 45 44 44 43 42 40 40 40 38 37 37 38 37 37 36 34 34 34 35 38 40 42 45 48 48 46 45 44 44 44 41 38 38 38 38 38 38 38 40 41 42 43 44 45 45 45 45 46 46 46 47 48 48 48 48 48 47 46 45 45 45 45 45 44 43 42 42 41 41 41 40 39 39 37 36
62 60 58 54 50 47 47 50 51 50 48 48 48 47 46 45 44 43 41 41 41 42 40 38 35 33 34 34 36 39 42 44 46 48 48 47 45 44 46 45 41 38 38 38 38 38 38 39 41 42 43 44 45 45 45 45 45 46 46 46 47 47 46 46 46 46 45 45 44 43 43 42 42 41 41 42 42 42 41 41 40 39 38 36 35
65 65 63 62 58 53 50 52 54 52 51 51 52 51 50 48 47 47 46 44 43 44 42 38 34 33 33 34 37 40 43 45 47 48 50 49 46 45 45 44 41 38 38 38 38 38 39 40 41 42 43 44 45 45 45 45 45 46 46 46 45 44 44 44 44 44 43 41 40 39 39 39 40 40 41 42 42 41 41 40 39 38 37 35 33
69 70 71 72 70 65 58 56 56 55 53 54 55 53 52 52 52 52 50 45 44 44 41 36 34 33 34 36 39 41 43 46 48 50 52 51 47 45 45 43 41 39 38 38 38 38 40 41 42 43 43 44 44 44 44 45 46 46 45 43 43 43 43 43 42 40 38 37 37 37 37 38 38 39 40 40 41 41 41 40 39 38 36 35 33
76 77 78 77 75 72 66 59 58 58 56 56 56 53 51 54 55 52 49 46 44 42 38 34 34 35 36 38 40 41 43 46 48 50 51 50 48 46 44 42 40 39 38 38 39 39 40 41 42 42 43 43 43 43 44 46 46 45 43 42 42 42 41 39 37 36 35 35 35 35 35 36 37 38 39 39 39 39 39 38 37 36 35 34 33
80 83 85 82 78 75 70 62 59 60 58 57 57 55 53 53 52 49 49 47 42 37 35 35 36 36 38 40 41 41 43 45 46 47 50 51 50 47 44 42 41 40 39 38 39 39 40 41 41 42 42 42 43 44 46 46 45 43 43 42 41 39 37 35 33 32 32 32 33 33 34 35 35 36 37 37 37 36 36 35 34 33 32 32 32
75 80 85 86 80 74 69 64 60 61 61 59 58 57 54 52 49 47 46 43 38 35 36 37 38 39 40 41 41 42 43 44 45 47 50 50 49 48 46 43 41 40 39 39 39 39 40 40 40 40 41 42 44 46 46 45 43 43 42 40 37 35 33 31 29 29 30 30 31 31 32 32 33 34 35 35 35 35 34 33 32 31 31 31 31
69 67 69 75 75 69 65 64 60 59 60 58 56 55 52 49 46 43 41 39 37 37 38 39 40 40 41 41 42 43 43 44 46 49 51 51 51 51 48 43 39 38 38 38 38 39 39 39 39 40 42 44 46 46 45 44 43 42 39 36 33 31 29 28 27 27 27 27 27 28 29 31 32 33 34 34 34 34 33 33 32 31 30 30 29
65 57 55 59 62 60 60 60 56 54 54 53 50 50 48 44 41 39 39 39 39 40 40 41 42 42 42 43 43 43 44 46 48 50 53 55 55 51 43 37 36 37 37 37 37 38 38 38 39 41 43 46 46 45 44 43 42 39 35 32 30 28 27 25 24 24 24 24 26 27 29 31 32 33 34 34 33 32 32 31 31 31 30 29 29
59 56 54 48 41 45 50 53 50 47 49 50 48 46 43 40 38 39 40 40 41 41 42 42 43 43 44 45 44 44 46 48 49 51 54 53 48 41 36 34 35 36 36 36 37 37 37 38 39 42 45 46 45 44 43 42 39 35 31 29 27 26 23 22 21 22 24 25 27 28 29 31 32 33 33 33 33 32 31 30 30 29 29 28 28
52 52 45 30 24 33 41 48 48 47 49 51 47 43 40 39 39 41 41 42 42 43 44 45 46 46 46 46 46 47 47 48 50 52 50 44 37 34 34 35 35 35 35 35 35 36 37 38 41 43 45 45 44 43 41 38 35 31 28 26 25 22 21 20 22 23 25 27 27 28 29 30 31 32 32 33 32 32 30 29 29 28 27 27 27
40 38 30 17 15 25 35 43 47 48 50 48 44 42 41 42 42 43 42 42 43 45 46 47 47 48 48 48 47 48 49 51 51 47 41 36 34 34 34 34 34 34 34 34 35 36 37 39 42 44 45 44 42 40 37 34 31 28 26 24 22 20 20 20 22 24 26 27 28 28 29 29 30 31 32 33 33 32 31 29 29 28 28 27 27
35 34 30 22 15 19 29 36 39 41 41 40 40 42 43 45 45 43 42 43 45 46 48 49 49 50 50 49 48 50 51 50 45 38 34 34 34 34 33 33 32 32 33 34 35 37 38 40 42 44 43 42 39 36 33 30 28 26 24 22 20 19 20 21 23 24 25 27 28 28 29 29 30 31 32 33 33 33 32 30 29 29 29 29 29
37 38 39 35 30 26 27 28 29 30 32 34 37 39 41 42 43 41 41 43 45 47 50 50 50 49 48 48 49 51 51 46 39 33 33 33 33 32 32 31 31 31 33 34 35 37 39 41 42 42 41 38 35 32 29 28 26 24 22 20 19 19 20 22 23 25 26 27 28 29 29 29 30 30 31 32 33 34 33 32 30 29 29 30 30
33 35 35 33 31 29 28 28 27 28 30 33 34 35 37 39 41 42 43 45 46 48 50 51 49 48 48 48 49 49 48 42 36 32 32 32 32 31 31 30 30 32 33 34 35 37 39 41 41 40 37 34 31 29 27 26 25 23 20 18 18 19 20 22 24 25 26 27 28 29 29 30 30 30 31 32 33 34 34 33 31 30 29 29 28
28 28 27 26 25 25 25 27 28 30 31 33 34 37 39 41 42 44 45 47 49 50 51 52 50 48 46 45 44 42 39 35 32 31 31 31 31 30 29 29 30 32 32 34 36 38 39 39 39 36 34 31 29 28 26 25 23 21 18 17 18 19 21 23 25 26 27 27 28 29 29 29 30 30 30 31 32 33 34 33 31 29 28 26 25
28 27 28 28 27 27 28 30 32 33 35 36 38 40 42 43 44 46 48 50 52 52 52 51 49 46 42 39 36 33 31 30 30 30 31 31 30 29 29 29 30 31 32 34 36 38 38 38 35 33 30 29 28 27 25 24 22 19 17 17 18 19 21 23 25 26 27 27 28 29 29 29 29 30 30 31 31 32 33 33 31 29 26 24 24
32 31 31 31 30 30 32 33 34 36 39 41 42 43 45 46 47 49 51 53 53 52 49 48 46 43 39 35 32 30 29 30 30 30 30 30 29 28 28 29 30 31 33 35 36 37 37 34 32 30 28 28 27 26 25 23 21 19 17 17 18 20 21 23 25 26 26 27 28 29 29 29 29 30 30 30 31 31 32 32 31 28 26 24 24
34 34 34 34 35 35 36 37 40 42 44 44 45 46 48 49 49 50 52 53 52 48 43 41 40 38 34 32 30 29 30 30 30 30 30 29 28 28 28 29 30 31 33 34 36 36 34 31 29 28 27 27 27 26 24 22 20 19 18 18 19 20 21 23 24 25 26 27 27 28 28 29 29 29 30 30 30 30 30 31 31 29 26 25 25
36 36 35 36 38 40 42 44 45 46 46 46 47 48 48 49 49 50 50 49 46 41 37 36 35 33 32 30 30 30 30 30 29 29 29 28 28 28 28 29 30 31 33 34 34 34 32 30 27 27 27 26 26 24 23 22 20 18 18 18 19 20 22 23 24 25 25 26 26 27 27 28 28 29 29 29 29 29 29 30 30 29 27 26 25
36 37 37 39 41 43 44 46 47 47 46 47 48 48 49 49 49 48 46 43 39 36 34 34 33 32 31 30 30 30 30 29 28 28 28 28 28 28 28 29 30 32 33 33 33 32 30 29 27 27 26 25 24 24 23 22 20 19 18 19 19 20 22 23 23 24 24 24 24 25 26 26 27 28 28 29 29 29 29 29 29 29 28 27 26
40 40 41 43 45 45 45 45 45 45 45 44 44 44 46 46 45 43 42 41 38 35 33 32 32 31 31 31 31 30 29 28 28 28 28 28 28 28 28 29 30 31 32 33 32 30 29 28 28 27 26 25 24 23 23 21 20 19 19 19 19 20 22 22 23 23 23 22 23 23 24 25 25 26 27 28 28 29 29 28 28 28 28 27 27
44 43 43 43 42 41 42 42 41 40 40 40 39 40 41 42 40 39 40 40 37 34 31 31 31 31 31 31 30 29 28 28 28 28 27 27 28 28 28 30 31 31 32 32 31 30 29 28 27 26 25 24 24 23 22 21 20 19 19 19 20 20 21 22 22 22 22 21 21 22 22 23 24 25 26 27 28 28 28 28 28 27 27 27 27
42 42 42 41 37 31 30 32 33 34 35 35 34 34 35 35 35 36 36 36 35 32 30 30 31 32 32 31 29 28 28 28 27 27 27 27 28 28 29 31 31 31 31 31 30 29 28 27 27 26 25 24 24 23 22 21 20 20 20 20 20 20 21 21 21 21 21 20 20 21 22 23 23 24 25 26 27 28 28 28 28 27 27 27 27
37 36 38 37 31 25 25 29 31 32 32 32 30 29 29 30 32 33 32 32 31 30 30 31 32 32 32 30 29 28 27 27 27 27 28 28 29 29 30 31 31 30 30 30 30 28 27 26 26 25 25 25 24 23 22 22 21 21 20 20 20 21 21 21 20 20 20 20 20 21 22 23 24 24 25 26 27 27 28 28 28 27 27 27 27
30 30 32 31 28 26 28 30 30 28 28 29 29 29 29 31 32 31 30 30 29 30 31 32 32 32 30 29 28 28 27 27 28 29 29 30 30 31 31 30 30 30 30 30 30 29 27 25 25 26 26 25 24 23 23 22 22 21 21 21 21 21 21 21 21 20 20 21 21 22 22 23 24 25 25 26 26 27 28 28 28 28 27 27 27
28 29 29 30 30 30 32 33 31 28 27 28 29 30 31 31 31 30 30 30 30 31 32 32 32 31 30 29 28 27 28 28 29 30 31 31 31 31 31 31 31 31 31 31 30 29 26 25 26 27 26 25 24 24 24 23 23 23 22 22 22 22 22 22 22 21 21 22 22 22 23 24 24 25 26 26 26 27 27 28 28 28 28 27 27
Wind_Direction
246 246 246 244 243 242 242 241 242 244 246 246 244 241 241 245 247 249 249 247 248 255 266 275 279 283 288 289 291 293 296 301 305 309 313 315 316 318 321 324 326 327 325 320 313 310 311 312 313 313 313 313 312 309 306 305 305 308 310 312 313 313 312 310 308 305 299 294 291 290 291 291 291 292 293 295 297 296 294 291 288 285 284 283 284
247 246 246 246 245 243 241 240 240 240 239 236 233 232 233 238 242 243 241 239 242 253 263 268 273 279 283 287 291 295 297 300 306 312 315 318 319 320 324 329 332 332 332 329 325 321 319 318 318 316 314 313 314 312 310 306 303 303 304 307 309 311 311 308 304 300 297 294 293 291 291 290 291 293 296 298 300 301 302 300 298 295 291 287 286
250 247 245 244 243 240 236 233 231 227 223 220 220 224 227 231 235 236 236 236 240 247 255 262 269 277 283 289 293 296 298 303 310 315 317 319 321 324 327 330 332 333 333 332 330 328 326 323 322 321 318 314 312 310 309 308 305 303 302 304 305 307 308 306 303 299 296 294 292 291 290 290 293 295 297 298 299 302 305 305 302 300 298 296 294
251 248 243 238 236 234 230 224 219 214 210 211 215 220 224 226 227 229 232 237 242 245 250 259 268 278 284 289 293 296 301 307 312 315 317 320 325 328 330 330 330 332 333 333 330 328 327 324 322 323 321 317 313 309 307 306 305 303 301 302 304 306 306 304 302 299 297 295 292 292 291 292 293 295 297 298 300 303 306 307 305 303 302 302 301
251 247 241 237 233 231 228 222 215 210 207 210 214 218 222 222 220 222 227 234 242 247 252 260 269 277 282 286 291 296 302 308 312 314 317 322 326 327 328 329 330 331 332 332 329 327 326 324 322 322 321 317 313 309 307 305 303 301 300 301 303 304 303 302 300 298 296 294 293 292 291 291 292 294 296 299 301 303 304 305 304 303 302 301 300
255 249 243 238 232 229 229 222 215 213 211 213 216 216 218 218 217 218 223 231 240 246 253 261 269 275 280 285 290 295 301 306 310 314 319 323 326 327 327 328 330 330 330 328 326 325 324 322 320 320 319 316 312 309 308 306 303 301 301 302 302 302 301 300 298 296 294 294 292 291 291 292 294 296 298 301 301 301 301 302 303 302 301 300 298
259 255 247 241 233 229 228 224 220 218 217 218 218 216 215 215 216 219 222 230 238 245 251 260 268 273 277 282 288 293 297 300 307 316 322 325 327 327 327 326 326 326 326 325 322 320 320 319 318 318 317 316 314 312 310 308 305 304 303 302 301 299 299 299 297 294 293 294 294 294 294 295 297 299 301 301 300 299 299 301 301 301 300 299 295
263 262 256 248 238 231 228 229 229 227 225 224 223 219 217 217 219 221 224 229 236 243 250 257 264 269 274 279 285 289 292 298 310 320 324 325 325 325 324 323 321 319 320 322 320 316 316 316 317 318 317 316 316 315 313 311 310 308 307 304 301 299 297 296 295 293 293 294 295 295 297 299 301 302 301 300 299 298 299 299 299 299 298 295 290
266 267 266 258 248 239 234 234 236 235 232 230 227 223 222 223 224 226 227 230 235 241 247 253 260 266 272 279 284 287 293 303 315 322 323 323 323 322 322 321 319 316 315 317 317 315 315 315 317 317 317 317 318 318 316 316 316 314 310 306 303 300 297 293 291 291 292 294 295 294 296 303 306 305 300 298 297 297 298 298 297 297 295 291 286
266 271 272 267 257 249 244 240 239 241 240 234 229 225 224 227 229 230 230 232 236 241 245 251 258 264 272 279 284 291 300 310 317 320 321 322 322 322 323 323 321 317 314 314 315 315 315 316 317 317 317 318 319 320 320 320 320 316 311 308 306 303 298 294 291 289 290 292 291 287 293 307 311 307 300 296 295 295 296 296 295 293 292 289 285
261 267 272 269 263 259 255 249 243 243 244 239 232 228 227 230 232 232 232 234 237 240 245 252 259 267 276 283 288 295 302 310 316 319 321 322 320 320 321 321 320 317 313 313 313 314 314 316 316 317 318 319 320 322 321 320 319 315 311 309 309 306 300 295 293 291 290 293 290 284 294 306 308 306 300 296 294 293 293 292 291 290 289 287 285
257 262 266 268 268 267 264 258 250 245 245 242 236 231 230 231 232 233 234 236 238 240 246 253 262 273 282 286 290 295 301 310 318 320 321 319 316 315 316 316 316 315 314 313 313 313 314 315 316 317 318 319 320 321 320 321 320 315 311 312 312 307 301 297 297 293 292 302 308 301 300 303 302 299 298 296 294 293 292 290 289 288 287 286 286
256 260 262 267 270 269 267 264 257 248 245 242 237 234 233 232 231 231 232 236 241 245 249 255 265 276 284 288 293 298 306 316 320 319 318 316 314 312 313 315 315 314 315 314 314 314 315 315 316 317 318 319 319 320 320 321 320 316 312 312 309 302 296 296 299 294 295 311 319 312 303 300 298 296 296 296 294 292 291 289 288 287 287 287 288
252 257 260 264 268 268 268 267 262 251 244 241 239 238 237 233 229 226 227 234 243 249 252 260 273 282 287 292 297 305 314 318 316 316 316 315 315 315 317 317 316 315 316 315 315 316 315 315 316 317 319 320 319 320 320 319 319 318 314 308 300 293 292 295 294 291 299 311 314 309 302 299 297 296 295 294 293 290 289 289 288 287 287 288 289
249 254 257 259 263 266 268 269 265 255 245 242 242 241 238 233 228 226 227 233 239 245 253 265 278 285 290 295 300 308 316 315 312 314 318 317 315 316 319 319 317 317 316 316 316 316 315 315 316 317 319 319 318 320 319 318 322 320 310 300 295 296 298 298 293 293 302 306 305 302 301 299 298 296 295 295 293 290 289 290 289 287 288 289 290
247 251 254 256 258 262 266 268 265 257 248 244 243 242 239 234 230 228 228 231 235 243 256 271 280 285 290 296 303 310 314 313 312 315 318 318 317 315 316 318 317 316 316 315 315 315 314 315 315 316 317 317 317 318 317 319 323 315 300 298 305 304 299 297 296 297 300 300 299 300 301 302 301 300 299 298 295 292 291 292 291 289 289 290 291
246 248 251 254 256 260 264 266 265 258 250 246 244 242 239 234 230 229 229 232 239 249 260 270 278 284 290 297 304 309 311 310 310 314 316 317 317 315 313 313 315 314 314 314 313 313 313 314 314 314 315 314 315 315 315 319 320 306 296 303 309 304 298 297 298 299 299 298 299 300 302 303 302 301 301 298 295 294 294 294 292 290 290 291 290
245 246 249 252 255 259 261 263 264 258 252 248 244 240 237 232 229 228 230 235 244 252 261 270 277 284 291 298 303 306 306 306 308 311 312 313 315 315 312 309 310 311 311 311 311 312 313 313 313 312 313 312 313 314 314 315 312 303 299 303 303 299 299 299 299 300 300 299 301 303 303 303 303 302 301 298 296 296 295 293 291 290 291 292 291
245 243 247 252 255 258 260 261 261 257 252 247 242 237 234 230 228 230 235 241 248 256 265 272 278 285 293 298 302 305 304 304 306 308 308 309 312 314 312 307 306 308 309 309 309 310 312 312 311 310 310 310 311 312 311 309 306 302 301 302 300 299 299 299 299 299 300 301 303 305 305 305 304 303 301 299 298 297 296 294 293 293 293 293 293
244 242 243 248 251 254 257 257 257 255 250 244 239 236 232 230 232 237 242 248 253 259 266 272 278 285 293 297 300 303 303 303 305 307 306 307 310 313 311 306 304 306 308 308 308 309 310 310 309 308 308 308 309 309 308 305 302 301 301 301 300 299 298 299 299 299 301 303 305 306 306 305 304 303 302 301 300 298 297 296 295 295 295 295 295
241 239 238 241 245 249 251 251 251 249 245 241 239 239 238 238 241 245 248 252 256 260 265 271 277 283 289 292 296 300 300 302 304 305 305 307 310 311 307 303 302 304 306 307 307 307 308 308 307 307 307 308 308 307 305 303 302 301 301 301 301 300 299 299 299 300 301 303 303 304 304 302 301 302 302 301 300 299 298 298 298 298 297 296 295
240 238 236 235 238 242 245 247 245 242 240 242 244 244 245 247 249 251 253 256 258 262 266 270 275 279 284 288 293 297 299 301 303 304 306 308 311 310 306 300 301 304 305 305 306 306 306 306 306 307 308 308 307 306 304 304 304 303 302 302 301 300 299 298 299 299 300 301 302 302 301 300 300 301 301 301 301 300 300 300 299 298 298 297 295
241 240 238 235 235 238 241 244 244 241 239 242 246 247 248 250 252 254 257 258 259 263 265 268 271 276 281 286 292 297 298 300 303 305 306 308 309 309 306 301 301 305 305 304 304 305 305 306 307 307 308 307 305 304 304 305 305 304 303 302 301 300 299 298 298 299 300 301 301 300 300 301 302 302 302 302 301 301 301 300 299 299 299 298 297
239 239 240 238 238 239 239 240 242 242 238 238 242 245 246 249 252 254 256 257 260 263 264 266 269 273 278 286 293 296 297 300 303 304 305 308 308 307 305 303 303 304 304 302 303 305 305 307 308 308 307 306 304 305 305 305 305 304 303 302 301 300 299 300 300 301 301 301 300 300 302 303 304 304 304 303 302 302 301 301 301 301 300 299 298
235 236 239 243 243 241 240 240 240 240 238 235 237 241 244 247 250 253 254 255 258 261 263 265 270 275 280 287 292 294 296 299 301 302 304 307 308 306 304 304 304 303 303 301 303 305 306 307 308 307 306 305 305 306 306 306 306 305 304 303 302 302 303 303 302 301 300 300 301 302 304 304 305 306 306 305 304 304 303 302 302 300 299 298 297
238 237 240 245 246 244 243 242 239 238 237 235 234 237 241 244 247 250 251 252 256 259 260 262 269 276 281 286 290 293 296 298 299 301 301 302 303 304 304 303 302 302 302 302 304 306 307 307 307 306 306 306 307 307 307 307 307 306 305 305 305 306 306 304 302 301 301 302 304 305 307 308 310 310 308 307 307 306 305 304 302 301 299 297 296
244 242 242 244 246 246 246 244 239 237 236 235 235 235 238 242 246 247 246 248 252 256 258 262 270 276 280 285 290 292 295 297 297 299 298 297 299 305 306 303 302 302 303 304 305 306 306 306 306 306 307 308 308 308 308 309 308 308 308 309 309 308 306 304 303 304 305 306 308 310 312 313 313 311 310 310 309 308 307 306 304 302 300 298 297
248 246 244 244 245 245 245 244 240 236 235 235 236 236 237 241 245 245 244 245 250 255 260 266 273 278 282 285 288 291 293 295 296 298 298 298 302 307 307 304 302 302 303 305 306 306 305 305 306 307 308 309 309 309 310 310 310 310 311 310 309 307 306 305 305 306 307 310 312 314 315 314 313 313 312 311 310 309 308 307 306 304 303 301 300
251 249 248 247 244 241 238 238 237 234 233 234 236 237 239 242 244 245 247 250 254 258 263 269 273 277 280 283 286 290 292 294 297 298 298 300 304 306 306 305 304 303 304 305 305 304 305 306 307 309 309 309 309 311 312 312 312 312 311 309 308 307 306 306 306 308 310 312 314 315 316 315 314 314 313 312 312 311 310 309 308 306 304 303 302
251 252 252 252 248 241 233 229 230 231 231 233 234 235 237 240 243 246 251 255 258 262 266 271 273 276 279 282 286 290 292 294 297 297 297 300 303 303 303 305 305 303 303 304 303 303 305 307 308 309 308 309 311 313 313 313 312 311 309 309 308 307 306 306 307 309 312 314 316 317 317 316 316 316 316 316 316 316 314 312 309 307 306 304 301
251 253 254 253 251 245 233 223 223 224 225 229 231 231 233 236 239 245 251 257 261 264 267 271 273 275 279 283 285 288 291 293 295 295 297 300 301 299 299 302 302 300 301 302 302 304 307 308 308 308 310 312 313 314 313 312 311 310 309 308 307 306 305 306 308 311 314 317 319 319 320 320 322 322 323 323 322 320 318 316 313 310 307 303 300
255 256 257 255 253 246 233 223 220 221 221 223 225 225 228 233 238 244 250 255 260 263 266 268 271 275 279 281 282 286 290 291 292 294 296 298 297 294 293 295 297 298 300 301 303 305 307 307 308 310 313 314 314 313 312 311 310 310 309 308 305 304 305 307 310 314 317 319 321 322 324 326 328 329 329 328 326 324 321 319 316 313 309 306 303
259 262 270 268 255 240 227 221 220 220 219 218 218 220 225 232 238 244 250 253 257 261 263 266 270 273 276 277 279 283 287 289 291 293 295 296 295 292 290 292 295 297 299 301 304 306 307 307 310 313 314 313 312 311 311 310 310 310 308 305 303 302 304 308 312 315 318 320 322 325 327 330 332 334 333 332 329 326 324 322 319 315 311 308 306
259 264 276 273 246 221 214 213 212 212 213 214 216 221 227 233 239 244 249 253 256 259 262 265 269 271 272 274 277 280 284 287 290 293 296 297 296 293 291 293 295 297 300 302 304 306 307 310 313 314 312 311 310 310 310 310 309 307 304 301 300 301 305 310 314 316 319 321 323 326 328 331 334 336 335 334 331 328 326 324 320 316 312 310 309
259 263 268 256 208 190 197 202 203 205 209 213 218 225 231 236 241 245 248 252 255 258 261 264 266 268 270 272 274 277 282 286 289 293 295 297 296 293 292 294 295 298 300 302 304 306 309 312 313 312 310 309 309 309 309 309 307 303 300 298 299 301 306 311 315 318 320 322 324 326 329 332 334 336 337 335 332 329 326 323 321 319 317 315 314
257 258 254 238 188 180 190 197 200 205 209 214 221 229 233 235 238 241 245 249 253 257 260 263 266 268 270 271 274 278 282 285 288 290 292 293 292 292 292 294 296 298 300 302 305 308 311 312 311 309 309 309 309 309 308 307 304 301 298 298 299 303 309 314 317 320 322 323 325 326 328 331 333 336 337 336 335 331 327 323 321 321 320 319 317
252 249 246 250 242 212 203 204 208 212 218 225 232 235 236 235 235 238 243 248 253 257 261 264 266 269 271 274 278 282 284 286 287 287 287 288 289 289 291 293 296 298 301 303 306 309 311 310 309 308 308 309 308 308 307 305 301 298 297 298 301 307 312 316 319 321 323 324 325 326 327 329 332 334 336 336 336 334 331 327 325 324 322 321 318
261 260 261 266 266 253 239 235 237 238 241 242 240 239 239 240 242 244 248 252 257 261 263 266 268 271 274 278 282 285 288 289 286 283 284 285 286 287 290 293 296 299 302 305 307 309 309 308 307 307 308 307 306 306 304 301 297 295 295 298 303 309 314 317 320 322 324 325 325 326 327 329 331 333 334 335 336 336 335 333 330 327 324 322 320
269 271 273 274 273 267 261 259 258 254 250 247 246 246 248 250 253 254 256 259 262 264 266 269 271 273 276 280 284 288 289 287 282 281 283 284 285 287 290 293 296 300 302 305 307 308 307 306 306 306 306 305 305 304 301 297 293 292 293 298 304 309 315 319 321 323 326 326 326 326 327 329 330 331 332 334 336 337 338 336 333 329 326 324 323
269 271 273 271 269 265 260 255 251 249 248 250 252 254 254 256 259 261 262 264 266 267 268 270 272 273 277 281 285 286 284 280 278 281 283 283 284 287 289 293 297 300 303 305 306 306 305 305 305 304 304 303 303 301 297 292 289 289 292 297 304 311 317 321 323 324 325 325 325 325 326 328 329 330 331 333 336 338 339 338 336 332 329 328 329
264 267 269 267 265 262 257 252 249 249 250 252 253 254 256 259 261 264 266 266 267 267 269 272 275 278 281 283 283 280 277 277 279 281 282 282 283 285 289 294 297 300 303 305 304 303 302 303 303 302 302 302 301 298 293 287 285 287 292 298 306 314 320 322 323 324 324 324 324 325 326 328 329 330 331 332 335 337 339 340 337 334 332 332 332
263 264 266 267 267 264 259 255 252 252 253 254 255 257 258 261 263 264 265 265 266 267 270 274 279 281 280 278 276 274 275 277 279 279 279 280 281 284 289 294 297 301 303 302 300 300 300 301 301 301 300 300 297 293 286 282 283 287 293 301 310 316 320 320 320 321 323 323 324 325 327 328 329 330 330 332 334 336 339 340 339 336 333 332 332
264 265 266 268 268 265 262 259 258 258 258 258 258 258 259 260 263 265 265 267 270 272 274 277 278 277 273 271 270 272 273 275 276 276 276 277 280 284 289 293 297 299 299 298 297 298 300 300 300 298 297 296 292 286 281 279 282 288 295 304 311 315 316 317 318 320 322 323 325 327 328 329 329 330 330 331 333 335 338 340 340 338 334 331 332
262 264 266 266 264 263 261 258 258 259 260 259 259 259 259 262 266 270 272 274 275 275 275 275 272 269 268 268 269 270 271 271 272 273 274 276 280 285 289 293 296 296 295 294 295 297 299 299 298 296 294 291 286 280 276 278 282 287 295 303 308 311 313 315 317 320 323 324 326 328 329 330 330 330 331 331 332 334 336 339 340 339 336 332 331
261 262 262 259 258 259 259 258 257 258 259 260 260 261 262 266 270 273 275 275 274 270 268 266 264 263 265 266 266 267 268 268 269 269 271 275 280 285 290 293 294 292 291 292 293 295 297 297 295 293 290 285 279 273 273 276 280 285 292 299 304 308 311 313 317 320 323 325 327 329 330 331 332 332 332 332 333 333 335 337 339 340 338 335 332
260 259 258 258 257 258 260 261 263 264 265 265 265 265 267 269 269 269 270 269 266 261 257 257 258 261 262 262 263 263 264 263 264 266 270 275 281 285 289 290 290 289 289 291 292 294 295 295 293 291 286 280 273 269 270 273 277 282 289 296 302 306 309 312 316 318 321 324 326 328 330 332 333 334 334 334 333 333 334 335 337 339 339 337 334
258 258 258 261 264 266 268 269 269 268 267 268 267 266 267 266 264 262 262 260 256 253 253 255 257 259 259 259 259 259 258 258 261 266 272 277 281 284 286 286 286 287 288 289 291 292 292 291 290 287 281 274 269 266 267 270 274 280 288 295 300 304 307 310 312 314 317 320 323 326 329 331 333 334 335 335 334 334 334 334 335 337 339 338 336
261 261 262 266 269 270 271 271 267 262 261 263 263 261 260 259 257 255 254 252 252 253 254 254 255 255 255 255 255 254 255 259 263 269 274 278 281 283 284 284 284 285 287 288 288 289 288 287 284 281 275 269 265 264 266 269 273 279 286 291 296 300 303 304 306 308 311 314 318 321 325 328 330 332 333 334 334 334 334 333 333 335 337 338 337
262 262 263 264 261 254 253 258 260 258 255 256 256 256 254 253 252 251 251 251 252 254 254 254 254 254 254 253 254 255 258 262 267 270 274 276 279 280 281 282 284 285 285 285 285 284 283 280 277 273 269 265 263 263 265 268 272 277 282 287 291 294 296 298 300 302 305 309 313 317 321 324 326 328 329 331 332 333 333 333 333 333 334 335 336
254 254 256 255 249 242 243 249 252 251 249 249 251 252 251 249 248 249 250 251 252 253 253 253 253 253 253 253 255 257 261 264 266 269 272 275 276 278 279 280 282 282 282 282 281 279 277 273 269 265 263 261 261 262 264 266 269 274 278 282 287 290 292 294 295 297 301 305 309 313 317 320 322 324 326 327 329 330 331 332 332 332 332 333 334
241 242 245 245 242 238 238 239 242 247 250 251 250 250 250 249 249 249 250 251 252 252 252 252 253 254 254 255 256 258 260 262 265 268 272 274 276 276 277 279 280 281 280 278 276 273 271 267 264 261 259 258 259 261 263 266 269 273 276 280 284 286 288 290 292 294 297 301 305 309 313 315 318 321 322 324 326 327 328 329 331 331 331 331 332
Height
5895 5896 5897 5897 5898 5899 5900 5901 5901 5902 5902 5903 5904 5904 5905 5905 5906 5907 5907 5908 5909 5909 5910 5910 5910 5910 5911 5911 5911 5910 5910 5909 5909 5908 5907 5906 5904 5902 5901 5899 5897 5895 5894 5892 5891 5889 5888 5887 5885 5884 5883 5882 5880 5879 5877 5876 5875 5873 5872 5870 5869 5868 5867 5866 5865 5864 5863 5862 5861 5860 5859 5858 5857 5857 5856 5854 5853 5852 5852 5851 5850 5849 5847 5845 5843
5893 5894 5894 5895 5895 5896 5897 5897 5898 5898 5899 5900 5901 5901 5902 5903 5903 5904 5905 5906 5907 5907 5907 5908 5908 5908 5909 5908 5908 5908 5908 5907 5906 5905 5904 5903 5902 5900 5899 5897 5895 5893 5891 5890 5888 5887 5886 5884 5883 5882 5880 5879 5877 5875 5874 5873 5872 5870 5869 5868 5867 5866 5865 5863 5861 5860 5859 5859 5858 5856 5856 5854 5853 5852 5851 5849 5848 5847 5846 5845 5844 5843 5841 5840 5839
5891 5891 5892 5893 5893 5893 5894 5895 5895 5896 5896 5897 5898 5898 5899 5900 5901 5901 5902 5903 5904 5905 5905 5905 5906 5906 5906 5906 5906 5905 5905 5905 5904 5902 5901 5900 5899 5898 5896 5894 5893 5891 5889 5887 5886 5885 5883 5881 5880 5879 5877 5876 5874 5872 5870 5869 5868 5867 5866 5865 5864 5863 5862 5860 5858 5857 5855 5854 5853 5852 5851 5849 5848 5847 5845 5845 5844 5843 5841 5839 5838 5836 5834 5833 5832
5889 5890 5890 5891 5891 5892 5892 5892 5893 5893 5894 5894 5895 5895 5896 5897 5898 5899 5899 5900 5901 5902 5903 5903 5904 5904 5904 5904 5903 5902 5902 5901 5901 5899 5898 5897 5896 5894 5893 5892 5890 5888 5886 5885 5883 5882 5880 5879 5877 5876 5875 5873 5872 5870 5868 5866 5865 5864 5863 5861 5860 5859 5858 5857 5855 5853 5851 5849 5848 5846 5845 5844 5843 5841 5840 5840 5839 5837 5835 5833 5831 5829 5827 5826 5825
5887 5888 5888 5889 5889 5890 5890 5890 5890 5891 5891 5891 5892 5892 5893 5894 5895 5896 5897 5898 5899 5899 5900 5901 5901 5901 5901 5901 5901 5900 5899 5898 5898 5896 5895 5894 5893 5891 5890 5889 5887 5885 5884 5882 5881 5879 5877 5876 5874 5873 5872 5870 5869 5867 5865 5864 5862 5860 5859 5858 5857 5855 5854 5852 5851 5849 5847 5845 5843 5841 5840 5839 5838 5837 5835 5835 5834 5832 5830 5828 5826 5824 5822 5821 5819
5885 5886 5886 5887 5888 5888 5888 5888 5888 5888 5889 5889 5889 5890 5891 5891 5892 5893 5894 5895 5896 5897 5898 5898 5898 5899 5899 5898 5898 5898 5897 5896 5895 5894 5892 5891 5890 5888 5887 5885 5884 5882 5881 5879 5878 5876 5874 5873 5871 5870 5869 5867 5865 5864 5862 5860 5858 5856 5855 5854 5853 5851 5849 5848 5846 5845 5843 5841 5839 5838 5836 5835 5834 5832 5831 5831 5829 5827 5825 5823 5821 5819 5817 5816 5814
5883 5884 5884 5885 5886 5886 5887 5887 5886 5886 5887 5887 5887 5887 5888 5889 5889 5890 5891 5892 5894 5894 5895 5895 5896 5896 5896 5896 5896 5896 5895 5894 5893 5892 5890 5888 5887 5886 5884 5883 5881 5880 5879 5877 5875 5873 5871 5870 5868 5866 5865 5863 5861 5860 5858 5856 5854 5853 5851 5850 5848 5846 5845 5843 5842 5840 5839 5838 5837 5835 5833 5832 5830 5828 5827 5826 5824 5822 5820 5818 5816 5813 5811 5810 5808
5881 5882 5882 5883 5884 5884 5885 5884 5884 5884 5884 5884 5884 5885 5885 5886 5886 5887 5888 5890 5891 5892 5892 5893 5893 5893 5893 5893 5893 5893 5893 5892 5891 5889 5888 5886 5884 5883 5882 5880 5879 5878 5876 5874 5872 5870 5868 5867 5865 5863 5861 5859 5857 5856 5854 5852 5850 5848 5846 5844 5843 5841 5840 5838 5837 5836 5835 5834 5832 5831 5830 5828 5826 5824 5822 5821 5819 5817 5815 5813 5811 5808 5805 5803 5802
5879 5880 5880 5881 5882 5882 5882 5882 5882 5882 5882 5882 5882 5883 5883 5883 5883 5884 5886 5887 5888 5889 5890 5890 5890 5890 5890 5891 5891 5891 5890 5889 5888 5887 5885 5883 5881 5880 5879 5877 5875 5874 5873 5872 5869 5867 5865 5863 5861 5860 5858 5856 5854 5852 5850 5848 5846 5844 5841 5838 5837 5836 5834 5832 5831 5830 5829 5829 5828 5827 5826 5824 5821 5819 5818 5815 5813 5811 5809 5807 5804 5802 5800 5798 5796
5876 5878 5878 5878 5879 5879 5879 5880 5880 5880 5880 5881 5880 5880 5880 5880 5880 5881 5883 5884 5885 5886 5887 5887 5887 5887 5888 5888 5888 5888 5888 5887 5885 5884 5882 5880 5878 5877 5875 5873 5871 5870 5869 5868 5866 5864 5862 5860 5858 5856 5854 5852 5850 5848 5846 5844 5841 5839 5835 5832 5830 5829 5827 5826 5825 5825 5824 5824 5823 5822 5820 5818 5816 5814 5812 5809 5807 5805 5802 5800 5798 5796 5794 5793 5791
5874 5875 5876 5876 5876 5876 5876 5877 5877 5877 5878 5878 5878 5877 5877 5877 5877 5878 5879 5880 5882 5883 5883 5884 5884 5884 5885 5885 5885 5885 5884 5883 5882 5881 5879 5877 5875 5873 5872 5870 5868 5866 5865 5864 5862 5860 5858 5856 5854 5853 5850 5848 5846 5844 5841 5839 5837 5834 5830 5827 5824 5822 5820 5819 5819 5819 5818 5817 5817 5816 5815 5813 5810 5808 5805 5803 5800 5798 5796 5793 5791 5789 5787 5786 5785
5871 5872 5873 5873 5872 5873 5873 5873 5874 5875 5875 5875 5875 5874 5874 5874 5874 5875 5876 5877 5878 5879 5880 5881 5881 5881 5882 5882 5882 5882 5881 5880 5878 5877 5875 5873 5871 5869 5868 5867 5865 5863 5862 5860 5858 5857 5855 5853 5851 5849 5846 5844 5842 5840 5837 5835 5832 5828 5825 5822 5819 5815 5812 5811 5812 5813 5812 5811 5810 5810 5809 5806 5804 5801 5799 5796 5794 5792 5789 5787 5784 5783 5781 5779 5778
5867 5868 5869 5869 5869 5869 5869 5870 5871 5872 5872 5872 5872 5871 5870 5870 5871 5872 5873 5873 5874 5875 5877 5877 5878 5878 5879 5878 5878 5878 5877 5876 5875 5873 5871 5869 5867 5865 5864 5863 5861 5860 5859 5857 5855 5853 5851 5849 5847 5844 5842 5840 5838 5835 5833 5830 5827 5822 5819 5818 5815 5810 5807 5806 5807 5807 5806 5805 5804 5803 5801 5799 5798 5795 5792 5789 5788 5785 5783 5780 5778 5776 5774 5772 5771
5864 5864 5866 5866 5866 5866 5866 5866 5868 5869 5869 5868 5868 5867 5867 5868 5868 5868 5869 5870 5871 5872 5873 5874 5874 5875 5875 5875 5874 5874 5874 5873 5871 5869 5868 5865 5863 5862 5861 5860 5858 5856 5855 5853 5851 5849 5847 5845 5843 5840 5838 5836 5833 5831 5829 5825 5822 5818 5813 5811 5809 5807 5805 5804 5803 5803 5802 5800 5799 5798 5795 5793 5791 5789 5785 5782 5781 5778 5776 5773 5771 5769 5767 5766 5764
5861 5861 5862 5863 5863 5863 5863 5863 5864 5865 5865 5864 5864 5864 5864 5864 5865 5865 5866 5867 5868 5869 5870 5870 5871 5871 5871 5871 5871 5871 5870 5869 5867 5866 5864 5862 5860 5858 5857 5856 5854 5852 5851 5849 5847 5845 5843 5841 5839 5837 5835 5833 5830 5828 5824 5820 5818 5813 5806 5805 5805 5803 5802 5800 5799 5799 5798 5795 5793 5791 5789 5786 5783 5781 5778 5775 5772 5770 5767 5766 5764 5761 5760 5759 5757
5857 5857 5858 5860 5860 5860 5860 5860 5861 5861 5861 5861 5861 5861 5861 5861 5862 5862 5863 5864 5865 5866 5867 5868 5868 5868 5868 5867 5867 5867 5867 5866 5864 5863 5861 5859 5857 5855 5854 5852 5851 5849 5846 5844 5843 5841 5839 5837 5835 5833 5832 5830 5826 5824 5821 5817 5814 5809 5803 5803 5805 5803 5800 5798 5796 5796 5794 5790 5787 5784 5781 5779 5776 5773 5770 5767 5764 5762 5759 5758 5756 5754 5752 5752 5750
5852 5854 5855 5856 5857 5857 5856 5856 5857 5857 5857 5857 5858 5858 5858 5858 5858 5859 5860 5861 5862 5863 5864 5864 5864 5865 5864 5864 5864 5863 5863 5862 5860 5859 5857 5855 5853 5851 5850 5849 5847 5845 5842 5840 5839 5837 5835 5833 5831 5829 5828 5826 5822 5820 5816 5814 5812 5808 5804 5803 5803 5801 5798 5795 5792 5790 5787 5784 5781 5778 5775 5772 5768 5765 5762 5759 5756 5754 5752 5751 5749 5746 5745 5744 5743
5848 5850 5851 5852 5853 5853 5853 5853 5853 5854 5854 5854 5855 5856 5855 5855 5856 5856 5857 5858 5859 5860 5860 5861 5861 5861 5861 5860 5860 5859 5858 5857 5856 5854 5852 5850 5848 5847 5846 5844 5843 5841 5839 5837 5835 5833 5832 5829 5827 5825 5823 5821 5818 5815 5812 5810 5809 5807 5803 5801 5799 5796 5793 5789 5785 5783 5780 5777 5774 5771 5767 5764 5761 5758 5755 5752 5749 5747 5746 5744 5742 5739 5738 5737 5735
5844 5846 5847 5848 5849 5849 5849 5849 5849 5850 5851 5852 5852 5853 5853 5853 5853 5854 5854 5855 5856 5856 5856 5857 5857 5857 5857 5856 5855 5854 5853 5852 5851 5850 5848 5846 5844 5843 5841 5839 5838 5836 5835 5833 5831 5829 5827 5825 5823 5820 5818 5815 5813 5811 5809 5807 5804 5802 5798 5796 5794 5790 5786 5783 5779 5776 5772 5769 5766 5763 5759 5756 5753 5751 5748 5745 5743 5740 5739 5737 5735 5733 5731 5729 5727
5840 5842 5844 5845 5845 5845 5846 5845 5846 5848 5849 5849 5850 5850 5850 5850 5850 5851 5851 5851 5852 5852 5853 5853 5853 5852 5852 5851 5850 5850 5849 5847 5846 5845 5844 5842 5840 5839 5837 5835 5833 5831 5830 5828 5826 5824 5823 5821 5818 5816 5813 5811 5808 5806 5805 5803 5800 5797 5793 5790 5788 5784 5780 5776 5773 5769 5766 5762 5758 5755 5752 5750 5747 5744 5742 5739 5736 5734 5732 5730 5728 5726 5724 5722 5720
5835 5837 5838 5839 5840 5841 5842 5843 5844 5845 5846 5846 5846 5846 5846 5847 5847 5847 5847 5848 5848 5848 5848 5848 5848 5847 5847 5846 5845 5845 5844 5843 5841 5840 5839 5838 5836 5834 5832 5830 5828 5826 5825 5823 5821 5819 5817 5815 5813 5810 5808 5806 5804 5802 5800 5798 5795 5792 5789 5785 5782 5778 5774 5770 5767 5763 5760 5756 5753 5750 5747 5744 5741 5738 5736 5733 5730 5728 5725 5723 5721 5719 5716 5714 5712
5829 5831 5832 5834 5835 5837 5839 5840 5841 5842 5842 5842 5841 5842 5842 5843 5843 5843 5843 5843 5844 5843 5843 5843 5843 5842 5842 5841 5841 5840 5839 5838 5837 5836 5834 5833 5832 5829 5827 5825 5823 5821 5820 5818 5816 5814 5812 5810 5808 5805 5803 5801 5799 5796 5794 5792 5789 5786 5783 5780 5776 5773 5769 5765 5761 5758 5754 5751 5748 5745 5742 5739 5736 5733 5730 5727 5725 5722 5719 5716 5714 5712 5709 5707 5705
5823 5824 5825 5827 5830 5832 5834 5836 5837 5837 5838 5837 5837 5837 5838 5838 5838 5838 5838 5838 5838 5838 5838 5838 5838 5838 5837 5836 5836 5835 5834 5833 5832 5831 5830 5829 5827 5825 5822 5820 5818 5816 5814 5812 5811 5809 5807 5805 5802 5800 5798 5796 5793 5791 5788 5785 5783 5780 5777 5773 5770 5766 5763 5759 5756 5752 5749 5746 5743 5740 5737 5734 5731 5727 5724 5722 5719 5716 5713 5710 5707 5705 5703 5701 5699
5815 5816 5818 5820 5823 5825 5827 5829 5830 5831 5833 5833 5831 5831 5832 5832 5832 5832 5832 5833 5833 5833 5833 5833 5833 5833 5832 5831 5831 5830 5829 5828 5827 5826 5825 5824 5822 5820 5818 5816 5813 5811 5809 5807 5805 5803 5801 5799 5797 5795 5793 5790 5787 5785 5782 5779 5776 5773 5770 5767 5763 5760 5756 5753 5750 5747 5743 5741 5738 5735 5731 5728 5725 5721 5719 5716 5713 5710 5707 5704 5702 5700 5697 5695 5693
5805 5808 5810 5813 5815 5817 5819 5821 5822 5824 5826 5827 5826 5825 5825 5826 5826 5826 5826 5827 5827 5827 5827 5827 5828 5828 5827 5826 5826 5824 5823 5823 5822 5820 5819 5819 5817 5815 5813 5811 5808 5806 5804 5802 5800 5798 5796 5793 5791 5789 5787 5785 5782 5779 5776 5773 5770 5767 5763 5760 5757 5754 5750 5747 5744 5741 5738 5735 5732 5729 5725 5722 5719 5716 5713 5710 5707 5705 5702 5699 5697 5694 5692 5690 5687
5799 5801 5803 5805 5807 5809 5811 5813 5815 5817 5818 5820 5820 5819 5818 5819 5820 5819 5820 5820 5820 5820 5821 5822 5822 5822 5821 5821 5820 5819 5818 5817 5817 5816 5814 5813 5812 5810 5808 5806 5803 5801 5798 5796 5794 5792 5790 5788 5786 5784 5781 5779 5776 5773 5770 5767 5764 5760 5757 5754 5751 5748 5745 5742 5739 5736 5733 5730 5726 5723 5719 5716 5714 5711 5708 5705 5702 5700 5697 5694 5691 5689 5687 5685 5682
5793 5795 5795 5796 5797 5799 5801 5804 5807 5810 5811 5812 5812 5812 5812 5812 5811 5810 5809 5810 5812 5813 5815 5816 5816 5816 5816 5816 5815 5814 5813 5813 5812 5811 5809 5807 5806 5804 5802 5800 5798 5795 5793 5791 5788 5786 5784 5782 5780 5778 5775 5773 5770 5767 5764 5761 5757 5754 5751 5748 5745 5742 5740 5737 5733 5730 5727 5724 5721 5718 5715 5712 5709 5706 5703 5700 5697 5694 5691 5689 5686 5683 5681 5679 5677
5784 5785 5786 5785 5785 5787 5791 5795 5799 5802 5804 5804 5804 5805 5805 5804 5801 5799 5799 5802 5804 5807 5809 5810 5810 5811 5811 5811 5810 5809 5809 5808 5807 5805 5804 5802 5800 5798 5797 5794 5792 5790 5787 5785 5783 5781 5779 5777 5775 5772 5770 5767 5764 5761 5758 5755 5752 5749 5746 5743 5740 5738 5735 5731 5728 5725 5722 5719 5716 5714 5711 5708 5705 5702 5699 5696 5693 5689 5687 5684 5681 5679 5676 5674 5673
5772 5773 5774 5774 5773 5774 5777 5783 5789 5792 5795 5795 5796 5797 5796 5795 5794 5795 5796 5797 5800 5802 5804 5805 5805 5806 5806 5805 5805 5805 5804 5803 5801 5799 5798 5796 5795 5793 5790 5789 5787 5784 5782 5779 5777 5775 5774 5772 5769 5767 5764 5762 5759 5756 5753 5750 5747 5744 5742 5739 5736 5733 5730 5727 5724 5720 5718 5716 5713 5711 5708 5705 5701 5698 5695 5692 5688 5685 5682 5679 5677 5674 5672 5670 5668
5761 5761 5762 5763 5763 5763 5764 5770 5777 5782 5784 5785 5786 5787 5786 5787 5790 5792 5792 5793 5796 5798 5799 5800 5800 5800 5800 5800 5800 5800 5799 5797 5795 5793 5791 5790 5788 5786 5784 5783 5781 5779 5776 5774 5772 5770 5769 5767 5764 5762 5759 5756 5753 5751 5748 5746 5743 5740 5737 5735 5732 5729 5726 5723 5720 5717 5715 5712 5710 5707 5704 5701 5698 5695 5691 5688 5684 5681 5678 5675 5673 5670 5668 5666 5664
5751 5752 5751 5751 5753 5755 5755 5758 5763 5767 5770 5772 5775 5778 5778 5780 5783 5786 5788 5790 5792 5793 5794 5795 5795 5795 5795 5795 5795 5794 5793 5791 5789 5787 5785 5784 5782 5780 5779 5777 5775 5773 5771 5769 5767 5765 5764 5761 5759 5757 5754 5751 5748 5746 5744 5741 5739 5736 5733 5730 5727 5725 5723 5720 5717 5715 5712 5709 5707 5704 5701 5698 5695 5691 5688 5684 5680 5677 5674 5672 5669 5667 5665 5663 5662
5743 5746 5744 5741 5742 5747 5749 5750 5753 5757 5759 5763 5768 5771 5772 5774 5778 5781 5784 5785 5787 5788 5789 5790 5789 5789 5789 5789 5788 5788 5787 5785 5783 5780 5779 5777 5776 5774 5773 5771 5769 5768 5766 5764 5762 5760 5758 5756 5754 5751 5748 5745 5743 5741 5739 5737 5734 5731 5729 5726 5724 5722 5719 5717 5715 5712 5709 5707 5704 5701 5698 5695 5692 5688 5684 5681 5678 5674 5671 5668 5666 5664 5662 5660 5658
5735 5739 5736 5728 5727 5734 5741 5745 5749 5753 5756 5759 5763 5764 5765 5769 5773 5776 5778 5780 5782 5783 5783 5783 5783 5784 5784 5783 5782 5782 5780 5779 5777 5774 5773 5771 5768 5767 5766 5765 5763 5762 5760 5759 5757 5755 5753 5751 5748 5745 5742 5740 5739 5737 5735 5732 5729 5727 5725 5722 5720 5719 5717 5714 5712 5709 5707 5705 5702 5699 5695 5692 5689 5685 5682 5678 5675 5672 5669 5666 5663 5661 5659 5657 5655
5729 5732 5728 5718 5715 5722 5729 5734 5740 5746 5750 5753 5756 5758 5761 5765 5769 5771 5773 5775 5776 5776 5777 5777 5777 5777 5777 5776 5776 5775 5774 5772 5771 5769 5766 5764 5763 5762 5761 5759 5757 5756 5755 5753 5751 5749 5747 5745 5742 5740 5738 5736 5735 5732 5730 5728 5726 5724 5722 5720 5718 5716 5714 5712 5709 5707 5704 5702 5699 5696 5692 5689 5686 5683 5679 5676 5673 5670 5666 5664 5661 5659 5657 5655 5653
5724 5725 5724 5717 5711 5712 5717 5723 5731 5738 5743 5746 5750 5754 5758 5761 5763 5765 5767 5769 5769 5770 5771 5771 5771 5771 5771 5770 5769 5768 5767 5766 5765 5763 5761 5759 5758 5757 5755 5753 5752 5751 5749 5747 5746 5744 5742 5739 5737 5735 5734 5732 5730 5728 5726 5724 5722 5721 5719 5717 5715 5713 5711 5709 5706 5704 5701 5698 5696 5693 5690 5687 5683 5680 5677 5674 5671 5668 5664 5662 5659 5657 5655 5652 5650
5719 5720 5721 5719 5714 5711 5714 5720 5727 5733 5738 5742 5747 5750 5753 5755 5757 5759 5761 5762 5763 5763 5764 5764 5764 5764 5764 5763 5762 5761 5760 5759 5758 5757 5755 5754 5753 5751 5750 5748 5747 5745 5743 5742 5740 5738 5736 5734 5732 5731 5729 5728 5726 5724 5722 5720 5718 5717 5715 5714 5712 5710 5708 5705 5703 5700 5698 5695 5693 5690 5687 5684 5681 5678 5675 5672 5669 5666 5663 5660 5657 5654 5652 5649 5647
5716 5716 5718 5720 5720 5720 5722 5726 5730 5734 5738 5742 5745 5746 5748 5749 5750 5752 5754 5755 5756 5757 5757 5757 5757 5757 5757 5756 5756 5754 5752 5751 5751 5751 5750 5749 5747 5746 5744 5743 5741 5739 5738 5736 5735 5733 5731 5730 5728 5727 5725 5723 5721 5719 5718 5716 5714 5713 5712 5710 5708 5706 5704 5702 5700 5697 5695 5693 5690 5687 5685 5682 5679 5676 5673 5670 5667 5664 5661 5658 5655 5652 5649 5647 5644
5714 5714 5715 5717 5720 5723 5726 5729 5732 5735 5737 5738 5739 5741 5743 5745 5746 5747 5748 5749 5750 5751 5751 5750 5750 5750 5750 5749 5748 5746 5745 5745 5745 5745 5744 5743 5742 5740 5739 5738 5736 5734 5733 5731 5729 5728 5726 5725 5724 5722 5721 5719 5717 5716 5714 5713 5711 5710 5709 5707 5705 5703 5701 5699 5697 5695 5692 5690 5687 5685 5682 5680 5677 5674 5671 5668 5665 5662 5659 5655 5652 5649 5646 5644 5641
5712 5712 5713 5714 5716 5719 5722 5725 5727 5729 5731 5733 5735 5737 5739 5741 5742 5742 5743 5744 5744 5744 5744 5743 5743 5744 5743 5742 5741 5740 5739 5739 5739 5739 5738 5737 5736 5735 5734 5733 5731 5729 5728 5726 5724 5723 5722 5721 5720 5719 5717 5715 5714 5712 5711 5709 5708 5707 5706 5704 5702 5700 5698 5696 5694 5691 5689 5687 5685 5682 5680 5677 5675 5672 5670 5667 5664 5660 5657 5653 5650 5647 5644 5641 5639
5709 5710 5710 5712 5713 5715 5718 5720 5722 5725 5727 5729 5731 5732 5733 5735 5736 5736 5737 5737 5737 5737 5736 5736 5736 5736 5736 5735 5734 5734 5733 5733 5733 5733 5732 5731 5731 5730 5729 5727 5726 5725 5723 5721 5720 5719 5718 5717 5716 5714 5713 5711 5710 5709 5708 5706 5705 5704 5703 5702 5700 5697 5695 5693 5691 5689 5687 5685 5682 5680 5678 5675 5673 5670 5668 5665 5662 5658 5655 5652 5648 5645 5643 5640 5637
5705 5706 5707 5708 5710 5712 5715 5716 5719 5721 5723 5724 5726 5727 5727 5728 5729 5730 5730 5730 5730 5730 5729 5729 5729 5728 5728 5728 5728 5728 5728 5728 5728 5727 5727 5726 5725 5724 5723 5722 5721 5719 5718 5717 5716 5715 5714 5713 5712 5710 5709 5707 5706 5705 5704 5703 5702 5702 5701 5699 5697 5695 5692 5690 5688 5686 5685 5682 5680 5678 5676 5673 5671 5668 5665 5663 5660 5657 5654 5650 5647 5644 5641 5639 5636
5701 5702 5703 5704 5706 5708 5710 5712 5714 5716 5717 5718 5720 5720 5720 5721 5722 5723 5723 5723 5722 5723 5723 5723 5722 5721 5721 5722 5722 5722 5722 5722 5722 5722 5721 5721 5720 5719 5718 5717 5716 5714 5713 5712 5712 5712 5710 5709 5707 5706 5704 5703 5702 5702 5701 5700 5699 5699 5698 5696 5694 5692 5689 5688 5686 5684 5683 5680 5678 5676 5673 5671 5669 5666 5663 5661 5658 5655 5652 5649 5646 5643 5640 5638 5635
5696 5698 5700 5701 5702 5704 5705 5706 5708 5709 5710 5711 5712 5712 5713 5714 5715 5716 5716 5716 5715 5716 5716 5716 5716 5715 5716 5716 5717 5717 5717 5717 5716 5716 5716 5715 5714 5713 5712 5711 5710 5710 5709 5709 5708 5708 5706 5704 5703 5701 5700 5700 5699 5698 5698 5697 5697 5696 5695 5693 5691 5689 5687 5686 5684 5682 5681 5678 5676 5673 5671 5669 5667 5664 5662 5659 5656 5653 5651 5648 5645 5642 5639 5636 5634
5694 5695 5697 5698 5698 5699 5700 5701 5702 5703 5704 5705 5706 5707 5708 5708 5709 5709 5710 5709 5709 5709 5710 5709 5709 5710 5710 5711 5711 5711 5711 5711 5711 5711 5710 5710 5709 5707 5707 5706 5705 5705 5706 5705 5705 5703 5702 5701 5699 5698 5697 5696 5696 5695 5695 5694 5694 5693 5692 5690 5688 5686 5684 5683 5682 5680 5678 5676 5674 5671 5669 5667 5665 5662 5660 5657 5655 5652 5649 5646 5643 5641 5638 5635 5633
5691 5692 5694 5695 5695 5695 5696 5697 5698 5699 5700 5700 5700 5700 5701 5702 5702 5703 5703 5702 5703 5703 5703 5703 5703 5704 5705 5705 5706 5706 5705 5705 5705 5705 5705 5704 5703 5702 5701 5701 5700 5701 5701 5701 5700 5699 5698 5697 5696 5694 5694 5693 5693 5692 5692 5691 5691 5690 5689 5687 5686 5684 5682 5680 5679 5677 5676 5674 5672 5669 5667 5665 5663 5660 5658 5655 5653 5650 5648 5645 5642 5639 5637 5634 5631
5686 5687 5688 5688 5689 5691 5691 5692 5693 5694 5694 5693 5693 5693 5694 5695 5695 5696 5696 5696 5697 5697 5697 5697 5698 5699 5700 5700 5700 5700 5700 5700 5700 5699 5699 5698 5697 5696 5696 5696 5696 5696 5696 5695 5695 5694 5693 5692 5692 5691 5690 5690 5690 5689 5689 5688 5688 5687 5686 5684 5683 5681 5679 5678 5676 5675 5673 5671 5669 5667 5665 5663 5661 5659 5656 5654 5651 5649 5646 5644 5641 5638 5636 5633 5630
5680 5680 5680 5681 5683 5683 5684 5685 5687 5687 5686 5686 5687 5687 5688 5688 5689 5690 5690 5690 5690 5691 5691 5692 5693 5694 5695 5695 5695 5694 5694 5694 5694 5693 5693 5692 5691 5691 5691 5691 5692 5691 5691 5690 5690 5689 5689 5688 5688 5687 5687 5686 5686 5686 5685 5685 5684 5683 5682 5681 5679 5678 5676 5675 5674 5672 5671 5669 5667 5665 5663 5661 5659 5657 5654 5652 5650 5647 5645 5642 5640 5637 5634 5632 5629
5674 5674 5673 5675 5678 5678 5677 5677 5679 5679 5679 5680 5681 5681 5682 5682 5683 5683 5684 5684 5684 5685 5686 5687 5688 5688 5688 5688 5688 5688 5688 5688 5688 5687 5687 5686 5686 5685 5686 5686 5686 5686 5686 5685 5685 5684 5684 5684 5683 5683 5683 5682 5682 5682 5681 5681 5681 5680 5679 5677 5676 5674 5673 5672 5671 5670 5668 5667 5665 5663 5661 5659 5657 5655 5653 5650 5648 5646 5643 5640 5638 5636 5633 5631 5628
5669 5669 5668 5669 5673 5674 5673 5672 5671 5671 5672 5674 5674 5675 5676 5677 5677 5678 5679 5679 5680 5681 5681 5681 5681 5681 5681 5681 5681 5681 5682 5682 5682 5682 5681 5681 5681 5681 5681 5681 5681 5681 5681 5680 5680 5679 5679 5679 5679 5679 5678 5678 5678 5678 5678 5677 5677 5676 5675 5674 5673 5672 5671 5670 5669 5667 5666 5664 5662 5660 5659 5657 5655 5653 5651 5649 5646 5644 5641 5639 5637 5634 5632 5629 5627
5664 5663 5663 5664 5667 5668 5668 5667 5666 5666 5667 5668 5669 5669 5670 5671 5673 5674 5675 5675 5676 5676 5675 5675 5675 5675 5675 5675 5676 5676 5676 5677 5677 5676 5676 5676 5677 5677 5677 5677 5676 5676 5676 5676 5676 5675 5676 5675 5675 5674 5674 5674 5674 5674 5674 5673 5673 5672 5671 5670 5669 5668 5667 5667 5666 5664 5663 5661 5659 5658 5656 5654 5652 5650 5649 5647 5644 5642 5640 5637 5635 5633 5630 5628 5626
5657 5657 5658 5659 5661 5662 5662 5662 5661 5661 5662 5663 5664 5665 5666 5667 5668 5669 5670 5670 5670 5670 5669 5669 5669 5669 5670 5670 5671 5671 5670 5671 5671 5671 5671 5671 5672 5672 5672 5672 5672 5672 5672 5672 5671 5671 5672 5671 5671 5670 5670 5670 5670 5670 5670 5669 5669 5668 5668 5667 5666 5665 5664 5663 5662 5661 5660 5658 5656 5655 5653 5651 5650 5648 5646 5644 5642 5640 5638 5636 5634 5631 5629 5627 5624